Sunlight Mountain, CO

5:46 PM MDT on October 20, 2017 (GMT -0600)
Sunlight Mountain

Weather History for K5SM - July, 2013

Change the Weather History Date:

Friday, July 12, 2013

  Actual Average (KRIL) Record (KRIL)
Temperature  
Mean Temperature 61 °F -  
Max Temperature 71 °F 89 °F 102 °F (2003)
Min Temperature 51 °F 53 °F 40 °F (1959)
Degree Days  
Heating Degree Days 4    
Growing Degree Days 11 (Base 50)    
Moisture  
Dew Point 48 °F    
Average Humidity 72    
Maximum Humidity 100    
Minimum Humidity 41    
Precipitation  
Precipitation 0.00 in - - ()
Sea Level Pressure  
Sea Level Pressure 30.51 in    
Wind  
Wind Speed 0 mph (South)    
Max Wind Speed 7 mph    
Max Gust Speed -    
Visibility 9 miles    
Events Rain , Thunderstorm    
Averages and records for this station are not official NWS values.
T = Trace of Precipitation, MM = Missing Value Source: NWS Daily Summary

Daily Weather History Graph

Daily Weather History Graph

Search for Another Location

Airport or City:

Trip Planner

Search our weather history database for the weather conditions in past years. The results will help you decide how hot, cold, wet, or windy it might be!

Date:

Astronomy

Jul. 12, 2013 Rise Set
Actual Time 5:53 AM MDT 8:37 PM MDT
Civil Twilight 5:21 AM MDT 9:08 PM MDT
Nautical Twilight 4:41 AM MDT 9:48 PM MDT
Astronomical Twilight 3:56 AM MDT 10:33 PM MDT
Moon 10:11 AM MDT (7/12) 10:50 PM MDT (7/12)
Length of Visible Light 15h 47m
Length of Day
14h 44m
Waxing Crescent, 18% of the Moon is Illuminated
Jul 12
Waxing Crescent
Jul 15
First Quarter
Jul 22
Full
Jul 29
Last Quarter
Aug 6
New

Hourly Weather History & Observations

Time (MDT) Temp. Dew Point Humidity Pressure Visibility Wind Dir Wind Speed Gust Speed Precip Events Conditions
12:17 AM 51.8 °F 46.4 °F 82% 30.52 in 10.0 mi Calm Calm - N/A   Overcast
12:38 AM 53.6 °F 46.4 °F 77% 30.52 in 10.0 mi Calm Calm - N/A   Mostly Cloudy
12:58 AM 53.6 °F 46.4 °F 77% 30.52 in 10.0 mi Calm Calm - N/A   Scattered Clouds
1:18 AM 53.6 °F 46.4 °F 77% 30.52 in 10.0 mi Calm Calm - N/A   Scattered Clouds
1:38 AM 53.6 °F 46.4 °F 77% 30.51 in 10.0 mi Calm Calm - N/A   Mostly Cloudy
1:58 AM 53.6 °F 46.4 °F 77% 30.52 in 10.0 mi Calm Calm - N/A   Overcast
2:18 AM 51.8 °F 46.4 °F 82% 30.51 in 10.0 mi Calm Calm - N/A   Scattered Clouds
2:38 AM 51.8 °F 44.6 °F 76% 30.50 in 10.0 mi Calm Calm - N/A   Scattered Clouds
2:58 AM 51.8 °F 44.6 °F 76% 30.49 in 10.0 mi Calm Calm - N/A   Mostly Cloudy
3:17 AM 51.8 °F 44.6 °F 76% 30.49 in 10.0 mi Calm Calm - N/A   Scattered Clouds
3:37 AM 51.8 °F 44.6 °F 76% 30.48 in 10.0 mi Calm Calm - N/A   Clear
3:58 AM 51.8 °F 44.6 °F 76% 30.48 in 10.0 mi Calm Calm - N/A   Clear
4:18 AM 51.8 °F 44.6 °F 76% 30.48 in 10.0 mi Calm Calm - N/A   Clear
4:38 AM 51.8 °F 44.6 °F 76% 30.48 in 10.0 mi Calm Calm - N/A   Scattered Clouds
4:58 AM 51.8 °F 44.6 °F 76% 30.48 in 10.0 mi Calm Calm - N/A   Scattered Clouds
5:18 AM 53.6 °F 44.6 °F 72% 30.48 in 10.0 mi Calm Calm - N/A   Mostly Cloudy
5:38 AM 53.6 °F 44.6 °F 72% 30.49 in 10.0 mi Calm Calm - N/A   Overcast
5:58 AM 53.6 °F 44.6 °F 72% 30.49 in 7.0 mi Calm Calm - N/A   Mostly Cloudy
6:18 AM 53.6 °F 44.6 °F 72% 30.49 in 7.0 mi Calm Calm - N/A   Scattered Clouds
6:38 AM 53.6 °F 44.6 °F 72% 30.50 in 7.0 mi Calm Calm - N/A   Clear
6:58 AM 55.4 °F 44.6 °F 67% 30.50 in 7.0 mi Calm Calm - N/A   Clear
7:17 AM 53.6 °F 44.6 °F 72% 30.51 in 7.0 mi Calm Calm - N/A   Clear
7:38 AM 53.6 °F 44.6 °F 72% 30.51 in 7.0 mi Calm Calm - N/A   Clear
7:58 AM 55.4 °F 46.4 °F 72% 30.52 in 10.0 mi Calm Calm - N/A   Clear
8:17 AM 59.0 °F 46.4 °F 63% 30.52 in 10.0 mi Calm Calm - N/A   Clear
8:37 AM 60.8 °F 48.2 °F 63% 30.52 in 10.0 mi Calm Calm - N/A   Clear
8:57 AM 60.8 °F 50.0 °F 68% 30.52 in 10.0 mi Calm Calm - N/A   Clear
9:18 AM 62.6 °F 50.0 °F 63% 30.53 in 10.0 mi Calm Calm - N/A   Clear
9:38 AM 62.6 °F 50.0 °F 63% 30.52 in 10.0 mi Calm Calm - N/A   Clear
9:58 AM 64.4 °F 50.0 °F 59% 30.52 in 10.0 mi Calm Calm - N/A   Clear
10:18 AM 64.4 °F 50.0 °F 59% 30.53 in 10.0 mi Calm Calm - N/A   Scattered Clouds
10:38 AM 64.4 °F 50.0 °F 59% 30.53 in 10.0 mi Calm Calm - N/A   Scattered Clouds
10:58 AM 68.0 °F 50.0 °F 52% 30.53 in 10.0 mi Calm Calm - N/A   Scattered Clouds
11:18 AM 69.8 °F 51.8 °F 53% 30.53 in 10.0 mi Calm Calm - N/A   Mostly Cloudy
11:38 AM 62.6 °F 51.8 °F 68% 30.53 in 10.0 mi Calm Calm - N/A Thunderstorm Overcast
11:58 AM 64.4 °F 51.8 °F 64% 30.53 in 10.0 mi Calm Calm - N/A   Mostly Cloudy
12:18 PM 68.0 °F 53.6 °F 60% 30.53 in 10.0 mi Calm Calm - N/A   Scattered Clouds
12:38 PM 64.4 °F 51.8 °F 64% 30.53 in 10.0 mi Calm Calm - N/A   Mostly Cloudy
12:58 PM 64.4 °F 53.6 °F 68% 30.53 in 10.0 mi SW 5.8 mph - N/A Rain , Thunderstorm Light Thunderstorms and Rain
1:18 PM 62.6 °F 51.8 °F 68% 30.53 in 10.0 mi West 3.5 mph - N/A   Mostly Cloudy
1:38 PM 62.6 °F 53.6 °F 72% 30.52 in 10.0 mi Calm Calm - N/A   Mostly Cloudy
1:58 PM 64.4 °F 51.8 °F 64% 30.51 in 10.0 mi Calm Calm - N/A   Scattered Clouds
2:18 PM 69.8 °F 50.0 °F 49% 30.51 in 10.0 mi SSW 3.5 mph - N/A Thunderstorm Thunderstorm
2:38 PM 71.6 °F 50.0 °F 46% 30.50 in 10.0 mi Calm Calm - N/A   Clear
2:58 PM 69.8 °F 50.0 °F 49% 30.50 in 10.0 mi Calm Calm - N/A Thunderstorm Scattered Clouds
3:18 PM 69.8 °F 46.4 °F 43% 30.49 in 10.0 mi Calm Calm - N/A   Scattered Clouds
3:38 PM 71.6 °F 46.4 °F 41% 30.50 in 10.0 mi Calm Calm - N/A Thunderstorm Scattered Clouds
3:58 PM 69.8 °F 46.4 °F 43% 30.50 in 10.0 mi WSW 3.5 mph - N/A Thunderstorm Mostly Cloudy
4:18 PM 60.8 °F 53.6 °F 77% 30.52 in 1.2 mi SSW 3.5 mph - N/A Rain , Thunderstorm Heavy Thunderstorms and Rain
4:38 PM 55.4 °F 53.6 °F 94% 30.50 in 5.0 mi Calm Calm - N/A Rain , Thunderstorm Light Thunderstorms and Rain
4:58 PM 53.6 °F 53.6 °F 100% 30.50 in 7.0 mi Calm Calm - N/A Rain , Thunderstorm Light Thunderstorms and Rain
5:18 PM 53.6 °F 51.8 °F 94% 30.50 in 7.0 mi Calm Calm - N/A Rain , Thunderstorm Light Thunderstorms and Rain
5:38 PM 51.8 °F 50.0 °F 94% 30.51 in 4.0 mi Calm Calm - N/A Rain Light Rain
5:58 PM 51.8 °F 48.2 °F 88% 30.52 in 10.0 mi Calm Calm - N/A Rain , Thunderstorm Light Thunderstorms and Rain
6:18 PM 51.8 °F 50.0 °F 94% 30.52 in 10.0 mi SE 4.6 mph - N/A   Overcast
6:37 PM 51.8 °F 50.0 °F 94% 30.52 in 10.0 mi SE 6.9 mph - N/A   Light Drizzle
6:58 PM 53.6 °F 51.8 °F 94% 30.52 in 10.0 mi ESE 4.6 mph - N/A Rain Light Rain
7:18 PM 53.6 °F 50.0 °F 88% 30.52 in 10.0 mi Calm Calm - N/A   Scattered Clouds
7:38 PM 51.8 °F 50.0 °F 94% 30.51 in 10.0 mi Calm Calm - N/A   Clear
7:58 PM 53.6 °F 46.4 °F 77% 30.51 in 10.0 mi Calm Calm - N/A   Clear
8:18 PM 51.8 °F 46.4 °F 82% 30.50 in 10.0 mi SE 4.6 mph - N/A   Clear
8:38 PM 51.8 °F 44.6 °F 76% 30.50 in 10.0 mi SSE 4.6 mph - N/A   Clear
8:58 PM 51.8 °F 44.6 °F 76% 30.51 in 10.0 mi ESE 3.5 mph - N/A   Clear
9:18 PM 51.8 °F 44.6 °F 76% 30.51 in 10.0 mi SE 3.5 mph - N/A   Clear
9:38 PM 51.8 °F 44.6 °F 76% 30.52 in 10.0 mi Calm Calm - N/A   Clear
9:58 PM 53.6 °F 44.6 °F 72% 30.52 in 10.0 mi Calm Calm - N/A   Clear
10:18 PM 53.6 °F 44.6 °F 72% 30.53 in 10.0 mi Calm Calm - N/A   Clear
10:38 PM 53.6 °F 44.6 °F 72% 30.53 in 10.0 mi Calm Calm - N/A   Clear
10:58 PM 53.6 °F 44.6 °F 72% 30.53 in 10.0 mi Calm Calm - N/A   Mostly Cloudy
11:18 PM 53.6 °F 44.6 °F 72% 30.54 in 10.0 mi Calm Calm - N/A   Overcast
11:38 PM 53.6 °F 44.6 °F 72% 30.54 in 10.0 mi SSW 3.5 mph - N/A   Mostly Cloudy
11:58 PM 53.6 °F 46.4 °F 77% 30.56 in 10.0 mi Calm Calm - N/A   Mostly Cloudy